Location: Drummondville
(45.8830°N, 72.4830°W)
Time: 21:35:37
(UTC-05:00)

OTV 5 (USA 277) - Visible Passes

Search period start: 13 December 2017 00:00
Search period end: 23 December 2017 00:00
Orbit: 404 x 417 km, 43.0° (Epoch: 07 September)

Date Brightness Start Highest point End Pass type
(mag) Time Alt. Az. Time Alt. Az. Time Alt. Az.
13 Dec ? 16:37:30 10° W 16:40:43 44° S 16:43:58 10° ESE visible
13 Dec ? 18:15:10 10° WSW 18:17:36 18° SSW 18:18:47 16° S visible
14 Dec ? 17:23:53 10° WSW 17:26:40 24° SSW 17:29:29 10° SSE visible
16 Dec ? 17:19:46 10° WSW 17:21:31 13° SSW 17:23:15 10° S visible
